Location: Tom
(33.0437°N, 96.9452°W)
Time: 20:44:50
(UTC-06:00)

ISS - Pass Details

Date: 26 January 2019
Orbit: 403 x 411 km, 51.6° (Epoch: 17 February)

Event Time Altitude Azimuth Distance (km) Brightness Sun altitude
Rises 18:19:05 0° 268° (W) 2,322 1.8 -5.7°
Reaches altitude 10° 18:21:55 10° 295° (WNW) 1,467 -0.2 -6.3°
Maximum altitude 18:23:45 14° 329° (NNW) 1,252 -1.2 -6.7°
Drops below altitude 10° 18:25:35 10° 3° (N) 1,473 -1.2 -7.0°
Enters shadow 18:27:54 - 26° (NNE) 2,147 -0.6 -7.5°
